Tracking 19192 objects as of 18-Jun-2018
HD Live streaming from Space Station
objects crossing your sky now

SL-16 DEB

Track SL-16 DEB now!
10-day predictions


NORAD ID: 24284
Int'l Code: 1995-058G
Perigee: 826.9 km
Apogee: 847.1 km
Inclination: 70.9 °
Period: 101.5 minutes
Semi major axis: 7208 km
RCS: 0.041 m2 (small)
Launch date: October 31, 1995
Source: Commonwealth of Independent States (former USSR) (CIS)
Launch site: TYURATAM MISSILE AND SPACE COMPLEX (TTMTR)

Note: This is SATELLITE DEBRIS
aabbcc
Your satellite tracking list
Your tracking list is empty




NASA's NSSDC Master Catalog

Two Line Element Set (TLE):
1 24284U 95058G   18169.34255864 -.00000123 +00000-0 -35712-4 0  9999
2 24284 070.8619 141.0307 0014040 222.0296 137.9751 14.18666893169327
Source of the keplerian elements: AFSPC